[Iaude] MPEC V66: 2023 VV1 [a=1.22,e=0.21,i=0.3,H=28.7]
    mpec at marsden.cfa.harvard.edu 
    mpec at marsden.cfa.harvard.edu
       
    Mon Nov  6 08:19:19 EST 2023
    
    
  
M.P.E.C. 2023-V66                              Issued 2023 November 6, 13:17 UT
     The Minor Planet Electronic Circulars contain information on unusual
         minor planets, routine data on comets and natural satellites,
         and occasional editorial announcements.  They are published
    on behalf of Division F of the International Astronomical Union by the
          Minor Planet Center, Smithsonian Astrophysical Observatory,
                          Cambridge, MA 02138, U.S.A.
			  
             Prepared using the Tamkin Foundation Computer Network
                              MPC at CFA.HARVARD.EDU
            URL https://www.minorplanetcenter.net/    ISSN 1523-6714
                                    2023 VV1                                    
Observations:
     K23V01V  C2023 11 05.26613101 43 44.170+07 53 15.91         20.90wXEV066F52
     K23V01V  C2023 11 05.28946101 43 50.378+07 54 17.71         20.70wXEV066F52
     K23V01V  C2023 11 05.30109101 43 53.355+07 54 48.50         20.80wXEV066F52
     K23V01V*1C2023 11 05.31381901 43 34.093+07 53 50.64         20.38GVEV066G96
     K23V01V 1C2023 11 05.31902501 43 35.436+07 54 02.84         20.62GVEV066G96
     K23V01V 1C2023 11 05.32422101 43 36.761+07 54 14.47         20.79GVEV066G96
     K23V01V 1C2023 11 05.32941301 43 38.125+07 54 26.42         20.15GVEV066G96
     K23V01V KC2023 11 05.38784701 43 54.484+07 56 36.42         19.91GVEV066I52
     K23V01V KC2023 11 05.38914201 43 54.908+07 56 39.70         20.64GVEV066I52
     K23V01V KC2023 11 05.39043301 43 55.304+07 56 42.50         20.60GVEV066I52
     K23V01V KC2023 11 05.39171801 43 55.679+07 56 45.28         20.94GVEV066I52
     K23V01V KC2023 11 05.90267 01 48 09.66 +08 17 36.0                VEV066587
     K23V01V KC2023 11 05.90484 01 48 10.37 +08 17 42.1          20.6 GVEV066587
     K23V01V KC2023 11 05.90699 01 48 11.08 +08 17 48.1                VEV066587
     K23V01V KC2023 11 05.94650801 48 22.14 +08 19 40.8          21.0 GVEV066L01
     K23V01V KC2023 11 05.94903001 48 22.95 +08 19 47.4          20.7 GVEV066L01
     K23V01V KC2023 11 05.95155001 48 23.75 +08 19 54.2          20.5 GVEV066L01
     K23V01V KC2023 11 05.98798501 48 38.11 +08 21 28.6          20.5 GVEV066L06
     K23V01V KC2023 11 05.99290401 48 39.78 +08 21 41.5          20.5 GVEV066L06
     K23V01V KC2023 11 05.99641701 48 41.04 +08 21 50.8          20.4 GVEV066L06
     K23V01V KC2023 11 06.03593 01 48 55.41 +08 23 36.4                VEV066204
     K23V01V KC2023 11 06.04799 01 48 59.95 +08 24 08.0          20.7 GVEV066204
     K23V01V KC2023 11 06.06006 01 49 04.58 +08 24 39.5                VEV066204
     K23V01V |C2023 11 06.11801 01 49 57.64 +08 38 30.1          20.8 VuEV066807
     K23V01V KC2023 11 06.12023101 50 05.61 +08 28 32.3          20.7 GVEV066H21
     K23V01V |C2023 11 06.12306 01 49 59.27 +08 38 44.9          20.4 VuEV066807
     K23V01V KC2023 11 06.12582401 50 07.56 +08 28 49.6          20.7 GVEV066H21
     K23V01V |C2023 11 06.12810 01 50 00.82 +08 39 00.1          20.4 VuEV066807
     K23V01V KC2023 11 06.13141701 50 09.52 +08 29 06.7          20.6 GVEV066H21
     K23V01V KC2023 11 06.13356001 50 10.28 +08 29 13.2          20.5 GVEV066H21
     K23V01V KC2023 11 06.17494401 50 33.57 +08 31 47.8          20.4 GXEV066858
     K23V01V KC2023 11 06.18208701 50 36.03 +08 32 09.8          19.7 GXEV066858
Observer details:
204 Schiaparelli Observatory.  Observers L. Buzzi, G. Galli.  0.84-m f/3.5
    reflector + CCD.
587 Sormano.  Observers F. Manca, A. Testa.  Measurer A. Testa.  0.5-m f/6.8
    reflector + CCD.
807 Cerro Tololo Observatory, La Serena.  Observers T. Linder, R. Holmes, L.
    Horn.  0.61-m f/6.5 Dall-Kirkham Astrograph + CCD.
858 Tebbutt Observatory, Edgewood.  Observer F. B. Zoltowski.  0.51-m f/8.1
    Schmidt-Cassegrain + CCD.
F52 Pan-STARRS 2, Haleakala.  Observers J. Bulger, T. Lowe, P. Minguez, A.
    Schultz, I. Smith.  Measurers K. Chambers, T. de Boer, J. Fairlamb, H.
    Gao, M. Huber, C.-C. Lin, E. Magnier, Y. Ramanjooloo, R. Wainscoat, R.
    Weryk.  1.8-m Ritchey-Chretien + CCD.
G96 Mt. Lemmon Survey.  Observer J. B. Fazekas.  Measurers E. C. Beshore, D.
    Fay, J. B. Fazekas, D. C. Fuls, A. R. Gibbs, A. D. Grauer, H. Groeller, J.
    K. Hogan, R. A. Kowalski, S. M. Larson, G. J. Leonard, D. Rankin, R. L.
    Seaman, F. C. Shelly, K. W. Wierzchos.  1.5-m reflector + 10K CCD.
H21 Astronomical Research Observatory, Westfield.  Observer R. Holmes.
    Measurers T. Linder, R. Holmes, L. Horn.  0.76-m f/3.0 astrograph + CCD.
I52 Steward Observatory, Mt. Lemmon Station.  Observer R. A. Kowalski.
    Measurers E. C. Beshore, D. Fay, J. B. Fazekas, D. C. Fuls, A. R. Gibbs,
    A. D. Grauer, H. Groeller, J. K. Hogan, R. A. Kowalski, S. M. Larson, G.
    J. Leonard, D. Rankin, R. L. Seaman, F. C. Shelly, K. W. Wierzchos.  1.0-m
    prime focus + CCD.
L01 Visnjan Observatory, Tican.  Observer K. Korlevic.  1.0-m f/2.9 reflector
    + CCD.
L06 Sormano 2 Observatory, Bellagio Via Lattea.  Observer G. Ventre.  Measurer
    P. Sicoli.  0.36m Schmidt Cassegrain + CCD.
Orbital elements:
2023 VV1                                                 Earth MOID = 0.0002 AU
Epoch 2023 Sept. 13.0 TT = JDT 2460200.5                Veres                   
M 294.79050              (2000.0)            P               Q                  
n   0.72925168     Peri.   30.20080     +0.14144076     -0.98993830             
a   1.2224124      Node    51.66828     +0.90721337     +0.12796783             
e   0.2071396      Incl.    0.29832     +0.39617978     +0.06038546             
P   1.35           H   28.72          G   0.15           U   7                  
Residuals in seconds of arc
231105 F52  0.0   0.2+    231105 587  0.1+  0.3+    231106 204  0.2-  0.2+
231105 F52  0.0   0.0     231105 587  0.1+  0.3+    231106 807  0.6-  0.4+
231105 F52  0.2+  0.2+    231105 587  0.2+  0.3+    231106 H21  0.2+  0.1-
231105 G96  0.2-  0.1-    231105 L01  0.2+  0.3+    231106 807  0.0   0.2-
231105 G96  0.1+  0.2+    231105 L01  0.2-  0.0     231106 H21  0.1-  0.1+
231105 G96  0.1-  0.1-    231105 L01  0.8-  0.0     231106 807  0.4-  0.3-
231105 G96  0.1+  0.0     231105 L06  0.5+  0.0     231106 H21  0.0   0.0
231105 I52  0.3-  0.4-    231105 L06  0.0   0.2-    231106 H21  0.2+  0.0
231105 I52  0.2+  0.0     231105 L06  0.5+  0.3-    231106 858  0.2-  0.0
231105 I52  0.2+  0.0     231106 204  0.3+  0.0     231106 858  0.3-  0.2-
231105 I52  0.1-  0.1-    231106 204  0.3+  0.1+
Ephemeris:
2023 VV1                 a,e,i = 1.22, 0.21, 0                   q = 0.9692
Date    TT    R. A. (2000) Decl.     Delta      r    Elong.  Phase     V
2023 10 07    01 04 05.7 +04 21 46   0.08776 1.0873   176.0     3.7    24.0
...
2023 10 22    01 08 35.8 +04 31 38   0.04929 1.0439   169.2    10.3    22.9
...
2023 10 30    01 18 46.7 +05 29 01   0.03151 1.0236   164.1    15.4    22.1
...
2023 11 05    01 41 37.2 +07 44 49   0.01894 1.0099   164.2    15.5    21.0
2023 11 06    01 48 52.8 +08 27 19   0.01692 1.0078   165.1    14.7    20.7
2023 11 07    01 58 09.6 +09 20 48   0.01493 1.0057   166.5    13.3    20.4
...
2023 11 13    05 39 53.2 +22 37 20   0.0053300.9942   144.6    35.2    18.8
...
2023 11 21    11 45 34.8 +04 26 39   0.01582 0.9810    63.2   116.0    24.2
...
2023 12 06    12 39 12.3 -01 17 32   0.04578 0.9661    63.8   113.8    26.4
M. P. C. Staff               (C) Copyright 2023 MPC           M.P.E.C. 2023-V66
    
    
More information about the Iaude
mailing list